Sparta, TN

9:37 PM CST on December 07, 2016 (GMT -0600)
Upper Cumberland Regional

Weather History for KSRB - December, 2012

Change the Weather History Date:

Friday, December 21, 2012

  Actual Average (KCSV) Record (KCSV)
Temperature  
Mean Temperature 34 °F 37 °F  
Max Temperature 39 °F 46 °F 67 °F (1956)
Min Temperature 28 °F 29 °F 0 °F (1989)
Degree Days  
Heating Degree Days 32    
Month to date heating degree days  
Since 1 July heating degree days  
Cooling Degree Days 0    
Month to date cooling degree days  
Year to date cooling degree days  
Moisture  
Dew Point 21 °F    
Average Humidity 63    
Maximum Humidity 75    
Minimum Humidity 52    
Precipitation  
Precipitation 0.00 in 0.15 in 1.53 in (1967)
Month to date precipitation 3.49  
Year to date precipitation 53.63  
Sea Level Pressure  
Sea Level Pressure 30.04 in    
Wind  
Wind Speed 11 mph (WNW)    
Max Wind Speed 18 mph    
Max Gust Speed 28 mph    
Visibility 10 miles    
Events      
T = Trace of Precipitation, MM = Missing Value Source: NWS Daily Summary

Daily Weather History Graph

Daily Weather History Graph

Search for Another Location

Airport or City:

Trip Planner

Search our weather history database for the weather conditions in past years. The results will help you decide how hot, cold, wet, or windy it might be!

Date:

Astronomy

Dec. 21, 2012 Rise Set
Actual Time 6:49 AM CST 4:31 PM CST
Civil Twilight 6:20 AM CST 5:00 PM CST
Nautical Twilight 5:48 AM CST 5:32 PM CST
Astronomical Twilight 5:17 AM CST 6:03 PM CST
Moon 12:11 PM CST (12/21) 12:43 AM CST (12/21)
Length of Visible Light 10h 39m
Length of Day
9h 42m
Waxing Gibbous, 65% of the Moon is Illuminated
Dec 21
Waxing Gibbous
Dec 28
Full
Jan 4
Last Quarter
Jan 11
New
Jan 18
First Quarter

Hourly Weather History & Observations

Time (CST) Temp. Windchill Dew Point Humidity Pressure Visibility Wind Dir Wind Speed Gust Speed Precip Events Conditions
12:15 AM 33.8 °F 25.3 °F 24.8 °F 70% 29.86 in 10.0 mi West 11.5 mph - N/A   Mostly Cloudy
12:35 AM 33.8 °F 25.8 °F 24.8 °F 70% 29.86 in 10.0 mi West 10.4 mph - N/A   Mostly Cloudy
12:55 AM 33.8 °F 26.4 °F 24.8 °F 70% 29.86 in 10.0 mi West 9.2 mph - N/A   Mostly Cloudy
1:15 AM 33.8 °F 23.9 °F 24.8 °F 70% 29.87 in 10.0 mi West 15.0 mph - N/A   Mostly Cloudy
1:35 AM 32.0 °F 22.5 °F 24.8 °F 75% 29.87 in 10.0 mi West 12.7 mph 23.0 mph N/A   Overcast
1:55 AM 32.0 °F 22.5 °F 24.8 °F 75% 29.88 in 10.0 mi West 12.7 mph 25.3 mph N/A   Overcast
2:15 AM 32.0 °F 21.6 °F 23.0 °F 69% 29.88 in 10.0 mi West 15.0 mph - N/A   Overcast
2:35 AM 32.0 °F 23.0 °F 24.8 °F 75% 29.89 in 10.0 mi West 11.5 mph - N/A   Mostly Cloudy
2:55 AM 32.0 °F 21.6 °F 23.0 °F 69% 29.90 in 10.0 mi West 15.0 mph - N/A   Overcast
3:15 AM 30.2 °F 21.9 °F 23.0 °F 75% 29.90 in 10.0 mi West 9.2 mph - N/A   Overcast
3:35 AM 30.2 °F 19.3 °F 21.2 °F 69% 29.90 in 10.0 mi West 15.0 mph - N/A   Overcast
3:55 AM 30.2 °F 20.8 °F 21.2 °F 69% 29.91 in 10.0 mi WNW 11.5 mph 23.0 mph N/A   Overcast
4:15 AM 30.2 °F 21.3 °F 21.2 °F 69% 29.91 in 10.0 mi West 10.4 mph - N/A   Overcast
4:35 AM 28.4 °F 18.0 °F 21.2 °F 74% 29.92 in 10.0 mi West 12.7 mph - N/A   Overcast
4:55 AM 28.4 °F 18.0 °F 21.2 °F 74% 29.93 in 10.0 mi WNW 12.7 mph - N/A   Overcast
5:15 AM 28.4 °F 18.5 °F 21.2 °F 74% 29.93 in 10.0 mi West 11.5 mph 21.9 mph N/A   Overcast
5:35 AM 28.4 °F 21.2 °F 21.2 °F 74% 29.94 in 10.0 mi West 6.9 mph - N/A   Overcast
5:55 AM 28.4 °F 19.7 °F 21.2 °F 74% 29.94 in 10.0 mi West 9.2 mph - N/A   Overcast
6:15 AM 28.4 °F 16.6 °F 21.2 °F 74% 29.95 in 10.0 mi West 16.1 mph - N/A   Overcast
6:35 AM 28.4 °F 17.0 °F 21.2 °F 74% 29.97 in 10.0 mi West 15.0 mph 21.9 mph N/A   Overcast
6:55 AM 28.4 °F 19.7 °F 21.2 °F 74% 29.98 in 10.0 mi West 9.2 mph 25.3 mph N/A   Overcast
7:15 AM 28.4 °F 18.5 °F 21.2 °F 74% 29.99 in 10.0 mi West 11.5 mph - N/A   Overcast
7:35 AM 28.4 °F 21.2 °F 21.2 °F 74% 30.00 in 10.0 mi Variable 6.9 mph - N/A   Overcast
7:55 AM 28.4 °F 18.5 °F 21.2 °F 74% 30.00 in 10.0 mi WNW 11.5 mph 23.0 mph N/A   Overcast
8:15 AM 28.4 °F 20.4 °F 19.4 °F 69% 30.01 in 10.0 mi WNW 8.1 mph - N/A   Overcast
8:35 AM 30.2 °F 21.3 °F 21.2 °F 69% 30.02 in 10.0 mi WNW 10.4 mph - N/A   Mostly Cloudy
8:55 AM 30.2 °F 21.9 °F 21.2 °F 69% 30.03 in 10.0 mi West 9.2 mph - N/A   Mostly Cloudy
9:15 AM 30.2 °F 24.3 °F 21.2 °F 69% 30.03 in 10.0 mi Variable 5.8 mph - N/A   Mostly Cloudy
9:35 AM 32.0 °F 24.8 °F 21.2 °F 64% 30.04 in 10.0 mi West 8.1 mph - N/A   Mostly Cloudy
9:55 AM 32.0 °F 22.5 °F 21.2 °F 64% 30.04 in 10.0 mi WNW 12.7 mph 21.9 mph N/A   Scattered Clouds
10:15 AM 33.8 °F 24.8 °F 21.2 °F 60% 30.05 in 10.0 mi West 12.7 mph - N/A   Scattered Clouds
10:35 AM 33.8 °F 25.3 °F 23.0 °F 65% 30.04 in 10.0 mi WNW 11.5 mph - N/A   Partly Cloudy
10:55 AM 35.6 °F 27.1 °F 23.0 °F 60% 30.04 in 10.0 mi WNW 12.7 mph - N/A   Partly Cloudy
11:15 AM 35.6 °F 25.9 °F 23.0 °F 60% 30.04 in 10.0 mi WNW 16.1 mph 27.6 mph N/A   Partly Cloudy
11:35 AM 37.4 °F 27.8 °F 23.0 °F 56% 30.03 in 10.0 mi WNW 17.3 mph 27.6 mph N/A   Clear
11:55 AM 37.4 °F 32.1 °F 24.8 °F 60% 30.03 in 10.0 mi Variable 6.9 mph - N/A   Partly Cloudy
12:15 PM 37.4 °F 28.5 °F 24.8 °F 60% 30.03 in 10.0 mi NW 15.0 mph - N/A   Scattered Clouds
12:35 PM 37.4 °F 28.2 °F 23.0 °F 56% 30.03 in 10.0 mi WNW 16.1 mph - N/A   Partly Cloudy
12:55 PM 37.4 °F 28.2 °F 23.0 °F 56% 30.03 in 10.0 mi WNW 16.1 mph 27.6 mph N/A   Clear
1:15 PM 37.4 °F 27.5 °F 23.0 °F 56% 30.03 in 10.0 mi NW 18.4 mph 26.5 mph N/A   Clear
1:35 PM 39.2 °F 29.8 °F 23.0 °F 52% 30.04 in 10.0 mi NW 18.4 mph - N/A   Clear
1:55 PM 37.4 °F 28.5 °F 21.2 °F 52% 30.05 in 10.0 mi NW 15.0 mph - N/A   Clear
2:15 PM 39.2 °F 31.2 °F 23.0 °F 52% 30.05 in 10.0 mi NW 13.8 mph - N/A   Clear
2:35 PM 39.2 °F 30.5 °F 23.0 °F 52% 30.05 in 10.0 mi NW 16.1 mph - N/A   Clear
2:55 PM 37.4 °F 28.9 °F 23.0 °F 56% 30.06 in 10.0 mi WNW 13.8 mph - N/A   Clear
3:15 PM 37.4 °F 29.3 °F 21.2 °F 52% 30.07 in 10.0 mi NW 12.7 mph - N/A   Clear
3:35 PM 37.4 °F 27.5 °F 21.2 °F 52% 30.07 in 10.0 mi NW 18.4 mph - N/A   Clear
3:55 PM 37.4 °F 30.8 °F 21.2 °F 52% 30.08 in 10.0 mi NW 9.2 mph - N/A   Clear
4:15 PM 35.6 °F 27.5 °F 21.2 °F 56% 30.08 in 10.0 mi WNW 11.5 mph - N/A   Clear
4:35 PM 35.6 °F 28.0 °F 19.4 °F 52% 30.09 in 10.0 mi NW 10.4 mph - N/A   Clear
4:55 PM 35.6 °F 28.0 °F 19.4 °F 52% 30.10 in 10.0 mi NW 10.4 mph - N/A   Clear
5:15 PM 33.8 °F 26.4 °F 19.4 °F 56% 30.11 in 10.0 mi WNW 9.2 mph - N/A   Clear
5:35 PM 33.8 °F 27.0 °F 19.4 °F 56% 30.12 in 10.0 mi WNW 8.1 mph - N/A   Clear
5:55 PM 33.8 °F 27.0 °F 19.4 °F 56% 30.13 in 10.0 mi West 8.1 mph - N/A   Clear
6:15 PM 33.8 °F 27.7 °F 19.4 °F 56% 30.14 in 10.0 mi WNW 6.9 mph - N/A   Clear
6:35 PM 33.8 °F 27.0 °F 19.4 °F 56% 30.15 in 10.0 mi WNW 8.1 mph - N/A   Clear
6:55 PM 33.8 °F 27.0 °F 17.6 °F 52% 30.16 in 10.0 mi WNW 8.1 mph - N/A   Clear
7:15 PM 32.0 °F 25.6 °F 17.6 °F 55% 30.16 in 10.0 mi WNW 6.9 mph - N/A   Clear
7:35 PM 32.0 °F 24.2 °F 17.6 °F 55% 30.17 in 10.0 mi NW 9.2 mph - N/A   Clear
7:55 PM 32.0 °F 23.6 °F 17.6 °F 55% 30.17 in 10.0 mi NW 10.4 mph - N/A   Clear
8:15 PM 32.0 °F 26.4 °F 17.6 °F 55% 30.18 in 10.0 mi NW 5.8 mph - N/A   Clear
8:35 PM 30.2 °F 23.4 °F 15.8 °F 55% 30.18 in 10.0 mi NNW 6.9 mph - N/A   Clear
8:55 PM 30.2 °F 26.7 °F 15.8 °F 55% 30.19 in 10.0 mi WNW 3.5 mph - N/A   Clear
9:15 PM 30.2 °F 24.3 °F 17.6 °F 60% 30.20 in 10.0 mi WNW 5.8 mph - N/A   Clear
9:35 PM 30.2 °F 26.7 °F 17.6 °F 60% 30.20 in 10.0 mi NW 3.5 mph - N/A   Clear
9:55 PM 30.2 °F 23.4 °F 15.8 °F 55% 30.21 in 10.0 mi NW 6.9 mph - N/A   Clear
10:15 PM 28.4 °F 23.3 °F 15.8 °F 59% 30.21 in 10.0 mi NW 4.6 mph - N/A   Clear
10:35 PM 28.4 °F 24.6 °F 15.8 °F 59% 30.21 in 10.0 mi NW 3.5 mph - N/A   Clear
10:55 PM 28.4 °F 23.3 °F 15.8 °F 59% 30.22 in 10.0 mi WNW 4.6 mph - N/A   Clear
11:15 PM 28.4 °F 22.2 °F 15.8 °F 59% 30.22 in 10.0 mi WNW 5.8 mph - N/A   Clear
11:35 PM 28.4 °F 19.1 °F 15.8 °F 59% 30.22 in 10.0 mi NW 10.4 mph - N/A   Clear
11:55 PM 28.4 °F 22.2 °F 15.8 °F 59% 30.21 in 10.0 mi NW 5.8 mph - N/A   Clear